STARLINK-1733 (46564 NORAD) Tracking and Keplerian Element Data

This shows tracking and keplerian element data for the satellite.

Feedback or suggestion? Click here.




ElementValue
Catalog46564
NameSTARLINK-1733
Epoch Orbit440
Epoch Day303.25001157
Epoch Year2020
RAAN330.0381
Inclination53.0002
Eccentricity0.0001357
Argument of Perigee63.1587
Mean Anonmoly202.7529
Mean Motion15.62737155
Decay Rate9.48E-05
L11 46564U 20070AJ 20303.25001157 .00009480 00000-0 10931-3 0 9991
L22 46564 53.0002 330.0381 0001357 63.1587 202.7529 15.62737155 4408

Live tracking and technical data element details for STARLINK-1733 (NORAD 46564). STARLINK-1733 can be tracked NOW for your location showing map with azimuth and elevation plus other details from your city location.

Track the satellite on the map from your city or location and see movement details for azimuth, elevation, latitude, longitude, range, height, and movement on the map or in text.







IsCatalogInMostPopularTable: catalog: 46564, numindb: 3
Update: records affected: 1



GetName: 46564 STARLINK-1733

Hit Count: updated at: Fri, 30 Oct 2020 00:50:13 GMT